This is the latest recevied weather packets stored in our database for station/object N0ZMJ-4. If no packets are shown the sender has not sent any weather packets the latest 10 day(s).
| Time | Temp. | Humidity | Pressure | Rain* | Wind** | Luminosity | Snow |
|---|---|---|---|---|---|---|---|
| 1777822503 | 16.11° C | 57% | 1010.3 hPa | 0 mm | - | - | - |
| 1777822203 | 15.56° C | 57% | 1010.2 hPa | 0 mm | - | - | - |
| 1777821903 | 16.11° C | 57% | 1010.2 hPa | 0 mm | - | - | - |
| 1777821602 | 15.56° C | 59% | 1010.2 hPa | 0 mm | - | - | - |
| 1777821303 | 15.56° C | 59% | 1010.3 hPa | 0 mm | - | - | - |
| 1777821003 | 15.56° C | 59% | 1010.2 hPa | 0 mm | - | - | - |
| 1777820703 | 15.56° C | 58% | 1010.3 hPa | 0 mm | - | - | - |
| 1777820403 | 15.56° C | 60% | 1010.4 hPa | 0 mm | - | - | - |
| 1777820103 | 15° C | 60% | 1010.4 hPa | 0 mm | - | - | - |
| 1777819803 | 15° C | 61% | 1010.2 hPa | 0 mm | - | - | - |
| 1777819503 | 15° C | 61% | 1010.3 hPa | 0 mm | - | - | - |
| 1777819203 | 15° C | 65% | 1010.3 hPa | 0 mm | - | - | - |
| 1777818903 | 14.44° C | 64% | 1010.4 hPa | 0 mm | - | - | - |
| 1777818603 | 14.44° C | 63% | 1010.4 hPa | 0 mm | - | - | - |
| 1777818303 | 13.89° C | 63% | 1010.4 hPa | 0 mm | - | - | - |
| 1777818003 | 13.89° C | 66% | 1010.3 hPa | 0 mm | - | - | - |
| 1777817703 | 13.89° C | 67% | 1010.3 hPa | 0 mm | - | - | - |
| 1777817403 | 13.33° C | 69% | 1010.3 hPa | 0 mm | - | - | - |
| 1777817103 | 13.33° C | 69% | 1010.3 hPa | 0 mm | - | - | - |
| 1777816802 | 13.33° C | 68% | 1010.2 hPa | 0 mm | - | - | - |
| 1777816503 | 12.78° C | 70% | 1010.2 hPa | 0 mm | - | - | - |
| 1777816203 | 12.78° C | 72% | 1010.1 hPa | 0 mm | - | - | - |
| 1777815904 | 12.78° C | 73% | 1010.1 hPa | 0 mm | - | - | - |
| 1777815602 | 12.22° C | 73% | 1010 hPa | 0 mm | - | - | - |
| 1777815303 | 12.22° C | 73% | 1010.1 hPa | 0 mm | - | - | - |
* Rain latest hour (hover to see other rain measurements)
** Current wind speed in m/s (hover to see current wind gust speed)